Content
SEND FEEDBACK

Daily
Averages
Monthly
Summary
United States of America

SUNLAND, CALIFORNIA


Home > North America > United States > California
Elevation: 1460 feet     Latitude: 34 16N     Longitude: 118 18W

WEATHER
 
SELECT A DAY
Number of Records: 181,041;   Date Range: 1/1/95 - 10/18/14
 
SHARE

PRINT THIS DATA

[ ← Previous Day ]
WEATHER ALMANAC - FEBRUARY 13, 2013
[ Next Day → ]
[ °C ]   °F
Weather ElementAverageHighLow
Temperature56.7 °F73 °F (8:53 am)39.2 °F (6:53 am)
Dewpoint28.5 °F36 °F (7:53 pm)23 °F (1:53 pm)
Humidity36.9 %64 % (6:53 am)16 % (1:53 pm)
Barometer30.17 in30.25 in (8:57 am)30.11 in (2:53 pm)
Wind Speed2.6 mph11.5 mph (2:53 pm)
Weather ElementAverage
Visibility10 mi
Wind DirectionESE (96.3 °)

Weather ElementTotal
Precipitation---
Heating Degree Days8.9 (Base 65)
Growing Degree Days6.1 (Base 50)
Averaged from 24 records on February 13, 2013
WEATHER CONDITIONS BREAKOUT
WIND DIRECTION BREAKOUT
WEATHER BY HOUR - FEBRUARY 13, 2013
[ °C ]   °F
Local TimeTemperatureDewpointHumidityBarometerVisibilityWind DirectionWind SpeedGust SpeedPrecipitationEventsConditions
1:53 AM42.8 °F28.0 °F56 %30.21 in10.0 miCalmClear
2:53 AM42.8 °F27.0 °F54 %30.21 in10.0 miCalmClear
3:53 AM54.0 °F28.0 °F37 %30.19 in10.0 miCalmClear
4:53 AM43.0 °F28.0 °F56 %30.20 in10.0 miCalmClear
5:53 AM51.1 °F27.0 °F39 %30.20 in10.0 miWSW (250°)3.5 mphClear
6:53 AM39.2 °F28.0 °F64 %30.22 in10.0 miCalmClear
7:53 AM44.6 °F28.9 °F54 %30.23 in10.0 miNorth (350°)3.5 mphClear
8:53 AM73.0 °F28.0 °F19 %30.23 in10.0 miCalmClear
8:57 AM51.8 °F28.4 °F41 %30.25 in10.0 miCalmClear
9:53 AM57.2 °F28.4 °F33 %30.23 in10.0 miCalmClear
10:53 AM64.0 °F27.0 °F25 %30.22 in10.0 miSE (130°)4.6 mphClear
11:53 AM66.9 °F27.0 °F22 %30.19 in10.0 miSouth (180°)3.5 mphClear
12:53 PM70.0 °F24.1 °F18 %30.15 in10.0 miSSE (160°)8.1 mphClear
1:53 PM71.1 °F23.0 °F16 %30.13 in10.0 miSSW (200°)4.6 mphClear
2:53 PM70.0 °F26.1 °F19 %30.11 in10.0 miSouth (190°)11.5 mphClear
3:53 PM68.0 °F28.9 °F23 %30.11 in10.0 miSouth (180°)8.1 mphClear
4:53 PM64.9 °F30.9 °F28 %30.11 in10.0 miSouth (170°)8.1 mphClear
5:53 PM62.1 °F30.9 °F31 %30.12 in10.0 miSouth (170°)3.5 mphClear
6:53 PM60.1 °F35.1 °F39 %30.12 in10.0 miCalmClear
7:53 PM57.0 °F36.0 °F45 %30.13 in10.0 miCalmClear
8:53 PM54.0 °F28.9 °F38 %30.13 in10.0 miNNW (330°)3.5 mphClear
9:53 PM53.1 °F28.9 °F40 %30.14 in10.0 miCalmClear
10:53 PM51.1 °F28.9 °F43 %30.14 in10.0 miCalmClear
11:53 PM48.9 °F28.9 °F46 %30.14 in10.0 miCalmClear
Hourly data recorded from KBUR, located miles away from Sunland, California







STORIES FROM OUR PARTNERS